Location: Miles
(41.4492°N, 81.6087°W)
Time: 07:30:07
(UTC+00:00)

Transit 2A - Pass Details

Date: 13 September 2024
Orbit: 590 x 960 km, 66.7° (Epoch: 09 October)

Event Time Altitude Azimuth Distance (km) Brightness Sun altitude
Rises 02:23:03 0° 262° (W) 3,478 10.0 -29.2°
Reaches altitude 10° 02:26:22 10° 280° (W) 2,598 9.5 -29.7°
Maximum altitude 02:30:26 18° 322° (NW) 2,127 9.0 -30.3°
Drops below altitude 10° 02:34:38 10° 4° (N) 2,691 9.2 -31.0°
Sets 02:38:10 0° 23° (NNE) 3,651 9.7 -31.5°
